Location: Newark
(58.8333°N, 23.5833°E)
Time: 23:55:22
(UTC+00:00)

Transit 4A - All Passes

Search period start: 16 November 2019 00:00
Search period end: 26 November 2019 00:00
Orbit: 868 x 976 km, 66.8° (Epoch: 16 November)

Date Brightness Start Highest point End Pass type
(mag) Time Alt. Az. Time Alt. Az. Time Alt. Az.
16 Nov - 01:16:14 10° WNW 01:21:58 40° N 01:27:34 10° ENE visible
16 Nov - 03:03:33 10° NW 03:09:28 50° NNE 03:15:11 10° E visible
16 Nov - 04:50:12 10° NW 04:56:12 75° SW 05:02:02 10° SE visible
16 Nov - 06:37:15 10° WNW 06:41:42 22° WSW 06:46:06 10° SSW daylight
16 Nov - 20:07:09 10° SSE 20:11:50 23° ESE 20:16:26 10° ENE night (unlit)
16 Nov - 21:51:11 10° SW 21:57:23 73° SE 22:03:26 10° NE visible
16 Nov - 23:38:05 10° W 23:44:06 51° NNW 23:49:59 10° NE visible
17 Nov - 01:25:52 10° WNW 01:31:35 39° N 01:37:09 10° ENE visible
17 Nov - 03:13:01 10° NW 03:18:58 57° NNE 03:24:47 10° ESE visible
17 Nov - 04:59:36 10° NW 05:05:29 59° SW 05:11:12 10° SSE visible
17 Nov - 06:47:07 10° WNW 06:50:42 17° WSW 06:54:13 10° SW daylight
17 Nov - 20:15:37 10° S 20:20:54 30° ESE 20:26:04 10° ENE night (unlit)
17 Nov - 22:00:29 10° SW 22:06:44 88° SE 22:12:48 10° NE visible
17 Nov - 23:47:43 10° W 23:53:39 46° NNW 23:59:25 10° NE visible
18 Nov - 01:35:27 10° WNW 01:41:11 40° N 01:46:46 10° ENE visible
18 Nov - 03:22:25 10° NW 03:28:27 67° NNE 03:34:18 10° ESE visible
18 Nov - 05:09:02 10° NW 05:14:42 46° WSW 05:20:13 10° SSE visible
18 Nov - 06:57:35 10° W 06:59:37 12° W 07:01:38 10° WSW daylight
18 Nov - 20:24:20 10° S 20:30:01 38° ESE 20:35:35 10° NE night (unlit)
18 Nov - 22:09:53 10° SW 22:16:07 77° NW 22:22:10 10° NE visible
18 Nov - 23:57:24 10° W 00:03:14 43° NNW 00:08:55 10° ENE visible
19 Nov - 01:45:01 10° WNW 01:50:47 43° NNE 01:56:24 10° E visible
19 Nov - 03:31:49 10° NW 03:37:52 79° NE 03:43:45 10° SE visible
19 Nov - 05:18:31 10° NW 05:23:50 35° WSW 05:29:04 10° S visible
19 Nov - 18:51:10 10° SE 18:54:07 14° ESE 18:57:02 10° ENE night (unlit)
19 Nov - 20:33:15 10° SSW 20:39:12 49° SE 20:45:02 10° NE night (unlit)
19 Nov - 22:19:23 10° WSW 22:25:33 65° NNW 22:31:33 10° NE visible
20 Nov - 00:07:04 10° WNW 00:12:50 40° N 00:18:26 10° ENE visible
20 Nov - 01:54:31 10° NW 02:00:21 47° NNE 02:06:02 10° E visible
20 Nov - 03:41:12 10° NW 03:47:14 85° SW 03:53:06 10° SE visible
20 Nov - 05:28:05 10° WNW 05:32:56 27° WSW 05:37:42 10° SSW visible
20 Nov - 18:58:56 10° SSE 19:03:04 19° ESE 19:07:09 10° ENE night (unlit)
20 Nov - 20:42:20 10° SSW 20:48:27 63° SE 20:54:26 10° NE night (unlit)
20 Nov - 22:28:57 10° WSW 22:35:02 56° NNW 22:40:57 10° NE visible
21 Nov - 00:16:44 10° WNW 00:22:26 39° N 00:28:00 10° ENE visible
21 Nov - 02:03:59 10° NW 02:09:53 52° NNE 02:15:38 10° E visible
21 Nov - 03:50:36 10° NW 03:56:33 69° SW 04:02:21 10° SSE visible
21 Nov - 05:37:47 10° WNW 05:41:58 20° WSW 05:46:04 10° SSW visible
21 Nov - 19:07:12 10° SSE 19:12:05 25° ESE 19:16:55 10° ENE night (unlit)
21 Nov - 20:51:33 10° SW 20:57:45 78° SE 21:03:48 10° NE night (unlit)
21 Nov - 22:38:35 10° W 22:44:33 49° NNW 22:50:22 10° NE visible
22 Nov - 00:26:21 10° WNW 00:32:02 40° N 00:37:37 10° ENE visible
22 Nov - 02:13:25 10° NW 02:19:24 60° NNE 02:25:12 10° ESE visible
22 Nov - 04:00:01 10° NW 04:05:48 54° SW 04:11:28 10° SSE visible
22 Nov - 05:47:48 10° WNW 05:50:55 15° WSW 05:54:00 10° SW daylight
22 Nov - 19:15:46 10° S 19:21:11 33° ESE 19:26:30 10° NE night (unlit)
22 Nov - 21:00:53 10° SW 21:07:06 86° NW 21:13:10 10° NE night (unlit)
22 Nov - 22:48:14 10° W 22:54:06 45° NNW 22:59:50 10° ENE visible
23 Nov - 00:35:56 10° WNW 00:41:39 41° N 00:47:14 10° E visible
23 Nov - 02:22:49 10° NW 02:28:51 71° NE 02:34:43 10° ESE visible
23 Nov - 04:09:27 10° NW 04:15:00 41° WSW 04:20:25 10° S visible
23 Nov - 05:59:05 10° W 05:59:49 10° W 06:00:31 10° WSW daylight
23 Nov - 17:43:54 10° ESE 17:45:26 11° E 17:46:58 10° E night (unlit)
23 Nov - 19:24:33 10° S 19:30:20 42° ESE 19:35:59 10° NE night (unlit)
23 Nov - 21:10:20 10° WSW 21:16:31 72° NW 21:22:32 10° NE night (unlit)
23 Nov - 22:57:55 10° W 23:03:42 42° N 23:09:20 10° ENE visible
24 Nov - 00:45:27 10° WNW 00:51:14 44° NNE 00:56:52 10° E visible
24 Nov - 02:32:13 10° NW 02:38:15 85° NE 02:44:07 10° SE visible
24 Nov - 04:18:57 10° NW 04:24:08 32° WSW 04:29:12 10° S visible
24 Nov - 17:50:55 10° SE 17:54:21 15° ESE 17:57:45 10° ENE night (unlit)
24 Nov - 19:33:32 10° SSW 19:39:33 54° SE 19:45:25 10° NE night (unlit)
24 Nov - 21:19:51 10° WSW 21:25:58 61° NNW 21:31:56 10° NE night (unlit)
24 Nov - 23:07:34 10° WNW 23:13:18 40° N 23:18:53 10° ENE visible
25 Nov - 00:54:56 10° NW 01:00:48 48° NNE 01:06:29 10° E visible
25 Nov - 02:41:36 10° NW 02:47:36 79° SW 02:53:26 10° SE visible
25 Nov - 04:28:34 10° WNW 04:33:11 24° WSW 04:37:45 10° SSW visible
25 Nov - 17:58:54 10° SSE 18:03:20 21° ESE 18:07:42 10° ENE night (unlit)
25 Nov - 19:42:39 10° SSW 19:48:48 68° SE 19:54:49 10° NE night (unlit)
25 Nov - 21:29:26 10° WSW 21:35:27 53° NNW 21:41:20 10° NE night (unlit)
25 Nov - 23:17:13 10° WNW 23:22:54 39° N 23:28:27 10° ENE visible
